Location: City of Moscow
(46.7306°N, 116.9989°W)
Time: 02:41:15
(UTC+00:00)

USA 234 - Pass Details

Date: 09 March 2026
Orbit: 1102 x 1106 km, 123.0° (Epoch: 4 January)

Event Time Altitude Azimuth Distance (km) Brightness Sun altitude
Exits shadow 06:26:48 20° 279° (W) 2,283 5.2 -43.3°
Drops below altitude 10° 06:29:06 10° 294° (WNW) 2,967 6.0 -43.5°
Sets 06:31:54 0° 304° (WNW) 3,929 6.8 -43.8°
